Flight Track Log - Related Links

Times and Time Zones

All times are in EDT time to prevent confusion due to time zone crossing. See the ACA7033 flight status page for this flight to view local times or setup timezone preferences in your user account.


Time Position Orientation Groundspeed Altitude Reporting Facility
EDT Latitude Longitude Course Direction KTS MPH feet Rate Location/Type
Thu 02:56:15 PM 35.8947 -78.7764 11° North 152 175 1,400  Level Washington Center
Thu 02:57:28 PM 35.9556 -78.7611 11° North 216 249 4,100 2,418 Climbing Washington Center
Thu 02:58:29 PM 35.9764 -78.8414 288° West 246 283 6,800 3,273 Climbing Washington Center
Thu 02:59:29 PM 35.9944 -78.9372 283° West 272 313 10,700 3,458 Climbing Washington Center
Thu 03:00:27 PM 36.0081 -79.0508 278° West 306 352 13,600 3,051 Climbing Washington Center
Thu 03:01:27 PM 36.0231 -79.1797 278° West 336 387 16,700 2,777 Climbing Washington Center
Thu 03:02:28 PM 36.0567 -79.3072 288° West 375 432 19,200 2,213 Climbing Washington Center
Thu 03:03:29 PM 36.1272 -79.3825 319° Northwest 366 421 21,200 1,916 Climbing Washington Center
Thu 03:04:27 PM 36.2300 -79.4364 337° Northwest 359 413 23,000 1,664 Climbing Washington Center
Thu 03:05:28 PM 36.3356 -79.5217 327° Northwest 397 457 24,500 992 Climbing Washington Center
Thu 03:06:28 PM 36.4167 -79.5953 324° Northwest 397 457 25,000 248 Climbing Washington Center
Thu 03:07:29 PM 36.5100 -79.6778 325° Northwest 402 463 25,000 98 Level Washington Center
Thu 03:08:30 PM 36.6022 -79.7858 317° Northwest 407 468 25,200 1,017 Climbing Washington Center
Thu 03:09:27 PM 36.6647 -79.9058 303° West 412 474 27,000 1,692 Climbing Washington Center
Thu 03:10:27 PM 36.7308 -80.0339 303° West 425 489 28,500 1,388 Climbing Washington Center
Thu 03:11:28 PM 36.7989 -80.1650 303° West 437 503 29,800 1,459 Climbing Washington Center
Thu 03:12:55 PM 36.8911 -80.3431 303° West 467 537 32,100 1,388 Climbing Atlanta Center
Thu 03:13:55 PM 36.9639 -80.4825 303° West 455 524 33,200 750 Climbing Atlanta Center
Thu 03:14:55 PM 37.0281 -80.6094 302° West 443 510 33,600 861 Climbing Atlanta Center
Thu 03:17:17 PM 37.2381 -80.8325 320° Northwest 420 483 36,100 1,000 Climbing Indianapolis Center
Thu 03:18:19 PM 37.3367 -80.9067 329° Northwest 420 483 37,000 387 Climbing Indianapolis Center
Thu 03:19:21 PM 37.4322 -80.9800 329° Northwest 414 476 36,900 -629 Descending Indianapolis Center
Thu 03:20:23 PM 37.5497 -81.0697 329° Northwest 420 483 35,700 -1,355 Descending Indianapolis Center
Thu 03:21:25 PM 37.6472 -81.1464 328° Northwest 422 486 34,100 -871 Descending Indianapolis Center
Thu 03:22:27 PM 37.7436 -81.2222 328° Northwest 421 484 33,900 -919 Descending Indianapolis Center
Thu 03:23:29 PM 37.8581 -81.3119 328° Northwest 423 487 32,200 -1,548 Descending Indianapolis Center
Thu 03:24:31 PM 37.9619 -81.3942 328° Northwest 436 502 30,700 -1,065 Descending Indianapolis Center
Thu 03:25:33 PM 38.0683 -81.4792 328° Northwest 448 516 30,000 -339 Descending Indianapolis Center
Thu 03:26:35 PM 38.1739 -81.5636 328° Northwest 446 513 30,000  Level Indianapolis Center
Thu 03:27:37 PM 38.2800 -81.6464 329° Northwest 444 511 30,000  Level Indianapolis Center
Thu 03:28:40 PM 38.3864 -81.7322 328° Northwest 446 513 30,000  Level Indianapolis Center
Thu 03:29:42 PM 38.4922 -81.8175 328° Northwest 446 513 30,000 -48 Level Indianapolis Center
Thu 03:30:44 PM 38.6194 -81.9194 328° Northwest 445 512 29,900 -581 Descending Indianapolis Center
Thu 03:31:46 PM 38.7256 -82.0039 328° Northwest 444 511 28,800 -1,839 Descending Indianapolis Center
Thu 03:32:48 PM 38.8358 -82.0642 337° Northwest 430 495 26,100 -2,661 Descending Indianapolis Center
Thu 03:33:50 PM 38.9464 -82.1047 344° North 413 475 23,300 -2,371 Descending Indianapolis Center
Thu 03:34:52 PM 39.0592 -82.1497 343° North 420 483 21,200 -1,984 Descending Indianapolis Center
Thu 03:35:54 PM 39.1717 -82.1953 343° North 423 487 19,200 -2,032 Descending Indianapolis Center
Thu 03:36:56 PM 39.2806 -82.2378 343° North 410 472 17,000 -2,032 Descending Indianapolis Center
Thu 03:37:58 PM 39.3856 -82.2814 342° North 397 457 15,000 -2,260 Descending Indianapolis Center
Thu 03:38:13 PM 39.4303 -82.3022 340° North 390 449 14,100 -2,323 Descending Indianapolis Center
Thu 03:39:00 PM 39.5094 -82.3292 345° North 388 447 12,600 -1,855 Descending Indianapolis Center
Thu 03:39:08 PM 39.5175 -82.3369 323° Northwest 385 443 12,400 -1,548 Descending Indianapolis Center
Thu 03:40:02 PM 39.6039 -82.3694 344° North 358 412 11,000 -1,527 Descending Indianapolis Center
Thu 03:40:03 PM 39.6025 -82.3714 227° Southwest 348 400 11,000 -857 Level Indianapolis Center
Thu 03:40:58 PM 39.6739 -82.4175 334° Northwest 298 343 10,200 -871 Descending Indianapolis Center
Thu 03:41:05 PM 39.6811 -82.4219 335° Northwest 312 359 10,100 -1,701 Descending Indianapolis Center
Thu 03:42:05 PM 39.7547 -82.4761 331° Northwest 285 328 8,300 -1,548 Descending Indianapolis Center
Thu 03:42:07 PM 39.7511 -82.4692 124° Southeast 291 335 8,500 -1,500 Climbing Indianapolis Center
Thu 03:43:09 PM 39.8214 -82.5175 332° Northwest 286 329 6,700 -1,790 Descending Indianapolis Center
Thu 03:44:11 PM 39.8892 -82.5611 334° Northwest 278 320 4,800 -1,161 Descending Indianapolis Center
Thu 03:45:13 PM 39.9697 -82.6128 334° Northwest 276 318 4,300 -872 Descending Indianapolis Center
Thu 03:46:08 PM 39.9653 -82.6967 266° West 207 238 3,100 -983 Descending Indianapolis Center
Thu 03:47:09 PM 39.9844 -82.7625 291° West 160 184 2,400 -689 Descending Indianapolis Center
Thu 03:48:10 PM 39.9881 -82.8147 275° West 139 160 1,700 -694 Descending Indianapolis Center
Thu 03:49:10 PM 39.9900 -82.8617 273° West 131 151 1,000 -700 Descending Indianapolis Center
Thu 03:51:00 PM 39.9833 -82.8833 294° West  Level FlightAware Approximate

Login

Don't have an account? Register now (free) for customized features, flight alerts, and more!